F4MLU-13 Weather Reports


Display with metric or nautical units.
time (UTC)temp
F
wind
direction
speed
MPH
gust
MPH
rain 1hr
in
rain 24hr
in
rain mn
in
humidity
%
barometer
mb
20260506124023 70 111 0.0 0.0 0.00 1.65 0.00 47
20260506123023 68 238 0.0 0.0 0.00 1.73 0.00 51
20260506122023 66 227 0.0 0.0 0.00 1.73 0.00 54
20260506121024 70 235 0.0 0.0 0.00 1.73 0.00 49
20260506120023 67 147 0.0 0.0 0.00 1.73 0.00 54
20260506115023 66 158 0.0 0.0 0.00 1.73 0.00 55
20260506114023 66 168 0.0 0.0 0.00 1.73 0.00 54
20260506113023 67 147 0.0 0.0 0.00 1.73 0.00 52
20260506112023 67 149 0.0 0.0 0.00 1.73 0.00 53
20260506111103 66 136 0.0 0.0 0.00 1.73 0.00 53
20260506110023 68 146 0.0 0.0 0.00 1.73 0.00 50
20260506105113 67 152 0.0 0.0 0.00 1.73 0.00 53
20260506104023 68 125 0.0 0.0 0.00 1.73 0.00 53
20260506103023 66 147 0.0 0.0 0.00 1.73 0.00 51
20260506102023 66 150 0.0 0.0 0.00 1.73 0.00 53
20260506100153 65 225 0.0 0.0 0.00 1.73 0.00 56
20260506084753 60 144 0.0 0.0 0.00 1.73 0.00 66
20260506062024 49 147 0.0 0.0 0.00 1.73 0.00 96
20260506061054 48 147 0.0 0.0 0.00 1.73 0.00 97
20260506051104 46 155 0.0 0.0 0.00 1.73 0.00 99
20260506045024 45 154 0.0 0.0 0.00 1.73 0.00 98
20260506044024 45 154 0.0 0.0 0.00 1.73 0.00 98
20260506043024 46 157 0.0 0.0 0.00 1.73 0.00 98
20260506042024 46 157 0.0 0.0 0.00 1.73 0.00 98
20260506041024 46 157 0.0 0.0 0.00 1.73 0.00 98
20260506040024 46 151 0.0 0.0 0.00 1.73 0.00 97
20260506035024 47 150 0.0 0.0 0.00 1.73 0.00 97
20260506034024 47 149 0.0 0.0 0.00 1.73 0.00 97
20260506033024 47 153 0.0 0.0 0.00 1.73 0.00 97
20260506032024 47 149 0.0 0.0 0.00 1.73 0.00 96
20260506031054 47 144 0.0 0.0 0.00 1.73 0.00 97
20260506030024 48 254 0.0 0.0 0.00 1.73 0.00 97
20260506025024 47 254 0.0 0.0 0.00 1.73 0.00 98
20260506024044 47 147 0.0 0.0 0.00 1.73 0.00 98
20260506023024 47 155 0.0 0.0 0.00 1.73 0.00 98
20260506022024 47 156 0.0 0.0 0.00 1.73 0.00 98
20260506021024 47 156 0.0 0.0 0.00 1.73 0.00 98
20260506020024 47 157 0.0 0.0 0.00 1.73 0.00 98
20260506015025 47 157 0.0 0.0 0.00 1.73 0.00 98
20260506014024 48 157 0.0 0.0 0.00 1.73 0.00 98
20260506013024 48 158 0.0 0.0 0.00 1.73 0.00 97
20260506012024 49 157 0.0 0.0 0.00 1.73 0.00 97
20260506011044 49 158 0.0 0.0 0.00 1.73 0.00 98
20260506010024 48 153 0.0 0.0 0.00 1.73 0.00 98
20260506005024 48 161 0.0 0.0 0.00 1.73 0.00 98
20260506004024 49 160 0.0 0.0 0.00 1.73 0.00 98
20260506003024 49 161 0.0 0.0 0.00 1.73 0.00 98
20260506002054 49 158 0.0 0.0 0.00 1.73 0.00 98
20260506001024 49 150 0.0 0.0 0.00 1.73 0.00 98
20260506000024 49 150 0.0 0.0 0.00 1.73 0.00 97
20260505235104 49 150 0.0 0.0 0.00 1.73 0.00 97
20260505234024 49 150 0.0 0.0 0.00 1.73 0.00 97
20260505233024 49 150 0.0 0.0 0.00 1.73 0.00 97
20260505232024 49 150 0.0 0.0 0.00 1.73 0.00 96
20260505231024 50 144 0.0 0.0 0.00 1.73 0.00 96
20260505230025 50 144 0.0 0.0 0.00 1.73 0.00 96
20260505225024 50 144 0.0 0.0 0.00 1.73 0.00 95
20260505224044 50 148 0.0 0.0 0.00 1.73 0.00 96
20260505223055 50 146 0.0 0.0 0.00 1.73 0.00 96
20260505222024 50 154 0.0 0.0 0.00 1.73 0.00 95
20260505221025 50 157 0.0 0.0 0.00 1.73 0.00 96
20260505220045 49 152 0.0 0.0 0.00 1.73 0.00 97
20260505205525 49 150 0.0 0.0 0.00 1.73 1.73 98
20260505204725 49 152 0.0 0.0 0.00 1.73 1.73 98
20260505202624 49 159 0.0 0.0 0.00 1.73 1.73 98
20260505201555 49 143 0.0 0.0 0.00 1.73 1.73 98
20260505200725 49 157 0.0 0.0 0.00 1.73 1.73 98
20260505193525 50 154 0.0 0.0 0.00 1.73 1.73 97
20260505192525 50 147 0.0 0.0 0.00 1.73 1.73 96
20260505191525 50 143 0.0 0.0 0.00 1.73 1.73 95
20260505190555 51 143 0.0 0.0 0.00 1.73 1.73 94
20260505185555 52 142 0.0 0.0 0.00 1.73 1.73 93
20260505182525 53 147 0.0 0.0 0.00 1.73 1.73 94
20260505181545 53 147 0.0 0.0 0.00 1.73 1.73 94
20260505180525 54 147 0.0 0.0 0.00 1.73 1.73 93
20260505175055 55 156 0.0 0.0 0.00 1.73 1.73 89
20260505174046 55 157 0.0 0.0 0.00 1.73 1.73 86
20260505173025 57 154 0.0 0.0 0.00 1.81 1.73 82
20260505172025 56 151 0.0 0.0 0.00 1.81 1.73 85
20260505171025 56 158 0.0 0.0 0.00 1.89 1.73 85
20260505170025 56 151 0.0 0.0 0.00 1.89 1.73 84
20260505165025 57 149 0.0 0.0 0.00 1.97 1.73 82
20260505164025 58 164 0.0 0.0 0.00 1.97 1.73 82
20260505163025 58 153 0.0 0.0 0.00 2.05 1.73 83
20260505162026 57 153 0.0 0.0 0.00 2.13 1.73 85
20260505161025 57 149 0.0 0.0 0.00 2.20 1.73 86
20260505153025 54 145 0.0 0.0 0.00 2.20 1.73 92
20260505152025 53 143 0.0 0.0 0.08 2.20 1.73 91
20260505151045 54 147 0.0 0.0 0.16 2.20 1.73 91